• în România
  • Lista ţărilor
  • Pe 7 zile
  • Temperatura apei
  • Hartă satelitară
  • Meteo pe hartă
  • Widget-uri
  • user-avatar
    Intrare

    Meteo pe oră la Klagenfurt

    Astăzi, 23 Septembrie, Sâmbătă

    Timp Temperatura Precipitaţii Vânt Presiune Umiditate
    00:00 +8°C° 0 mm 1 m/s 693 mmHg 89%
    01:00 +8°C° 0 mm 1 m/s 693 mmHg 88%
    02:00 +8°C° 0 mm 1 m/s 693 mmHg 88%
    03:00 +7°C° 0 mm 1 m/s 693 mmHg 89%
    04:00 +7°C° 0 mm 1 m/s 692 mmHg 89%
    05:00 +8°C° 0 mm 1 m/s 692 mmHg 87%
    06:00 +8°C° 0 mm 1 m/s 693 mmHg 85%
    07:00 +10°C° 0 mm 1 m/s 693 mmHg 81%
    08:00 +12°C° 0 mm 0 m/s 693 mmHg 73%
    09:00 +14°C° 0 mm 0 m/s 694 mmHg 65%
    10:00 +17°C° 0 mm 0 m/s 694 mmHg 57%
    11:00 +18°C° 0 mm 0 m/s 694 mmHg 55%
    12:00 +21°C° 0 mm 1 m/s 694 mmHg 53%
    13:00 +22°C° 0 mm 1 m/s 694 mmHg 50%
    14:00 +21°C° 0,2 mm 1 m/s 694 mmHg 55%
    15:00 +20°C° 0,2 mm 1 m/s 693 mmHg 61%
    16:00 +19°C° 0,2 mm 1 m/s 693 mmHg 66%
    17:00 +16°C° 0,7 mm 1 m/s 692 mmHg 74%
    18:00 +14°C° 0,7 mm 1 m/s 692 mmHg 82%
    19:00 +12°C° 0,7 mm 1 m/s 692 mmHg 90%
    20:00 +12°C° 0,3 mm 1 m/s 692 mmHg 92%
    21:00 +11°C° 0,3 mm 1 m/s 692 mmHg 93%
    22:00 +10°C° 0,3 mm 0 m/s 692 mmHg 95%
    23:00 +10°C° 0,1 mm 0 m/s 692 mmHg 95%

    Mâine, 24 Septembrie, Duminică

    Timp Temperatura Precipitaţii Vânt Presiune Umiditate
    00:00 +9°C° 0,1 mm 0 m/s 692 mmHg 95%
    01:00 +9°C° 0,1 mm 0 m/s 692 mmHg 95%
    02:00 +9°C° 0,1 mm 0 m/s 692 mmHg 95%
    03:00 +9°C° 0,1 mm 0 m/s 692 mmHg 95%
    04:00 +10°C° 0,1 mm 1 m/s 692 mmHg 95%
    05:00 +10°C° 0,1 mm 1 m/s 692 mmHg 95%
    06:00 +10°C° 0,1 mm 1 m/s 692 mmHg 94%
    07:00 +10°C° 0,1 mm 1 m/s 692 mmHg 93%
    08:00 +11°C° 0,1 mm 1 m/s 692 mmHg 89%
    09:00 +13°C° 0,1 mm 1 m/s 693 mmHg 85%
    10:00 +14°C° 0,1 mm 1 m/s 693 mmHg 81%
    11:00 +14°C° 0,3 mm 1 m/s 693 mmHg 79%
    12:00 +15°C° 0,3 mm 1 m/s 693 mmHg 77%
    13:00 +15°C° 0,3 mm 1 m/s 693 mmHg 75%
    14:00 +15°C° 0,4 mm 1 m/s 693 mmHg 77%
    15:00 +15°C° 0,4 mm 1 m/s 693 mmHg 78%
    16:00 +14°C° 0,4 mm 1 m/s 692 mmHg 80%
    17:00 +13°C° 0,2 mm 1 m/s 692 mmHg 85%
    18:00 +12°C° 0,2 mm 1 m/s 692 mmHg 89%
    19:00 +11°C° 0,2 mm 1 m/s 692 mmHg 94%
    20:00 +10°C° 0,2 mm 1 m/s 692 mmHg 94%
    21:00 +10°C° 0,2 mm 1 m/s 692 mmHg 95%
    22:00 +10°C° 0,2 mm 1 m/s 693 mmHg 95%
    23:00 +10°C° 0,2 mm 1 m/s 693 mmHg 95%

    Poimâine, 25 Septembrie, Luni

    Timp Temperatura Precipitaţii Vânt Presiune Umiditate
    00:00 +10°C° 0,2 mm 1 m/s 692 mmHg 96%
    01:00 +9°C° 0,2 mm 1 m/s 692 mmHg 96%
    02:00 +9°C° 0,1 mm 1 m/s 692 mmHg 96%
    03:00 +9°C° 0,1 mm 1 m/s 692 mmHg 96%
    04:00 +9°C° 0,1 mm 1 m/s 692 mmHg 96%
    05:00 +9°C° 0,1 mm 1 m/s 692 mmHg 95%
    06:00 +9°C° 0,1 mm 1 m/s 692 mmHg 95%
    07:00 +9°C° 0,1 mm 1 m/s 692 mmHg 94%
    08:00 +11°C° 0,1 mm 1 m/s 692 mmHg 89%
    09:00 +12°C° 0,1 mm 1 m/s 692 mmHg 84%
    10:00 +13°C° 0,1 mm 1 m/s 693 mmHg 79%
    11:00 +14°C° 0,1 mm 1 m/s 693 mmHg 75%
    12:00 +15°C° 0,1 mm 1 m/s 693 mmHg 71%
    13:00 +15°C° 0,1 mm 1 m/s 693 mmHg 68%
    14:00 +15°C° 0,1 mm 1 m/s 693 mmHg 69%
    15:00 +15°C° 0,1 mm 1 m/s 693 mmHg 71%
    16:00 +15°C° 0,1 mm 1 m/s 692 mmHg 73%
    17:00 +13°C° 0,1 mm 1 m/s 692 mmHg 80%
    18:00 +11°C° 0,1 mm 1 m/s 692 mmHg 87%
    19:00 +10°C° 0,1 mm 1 m/s 692 mmHg 94%
    20:00 +9°C° 0 mm 1 m/s 693 mmHg 95%
    21:00 +8°C° 0 mm 0 m/s 693 mmHg 95%
    22:00 +8°C° 0 mm 0 m/s 693 mmHg 96%
    23:00 +8°C° 0 mm 0 m/s 693 mmHg 96%

    26 Septembrie, Marţi

    Timp Temperatura Precipitaţii Vânt Presiune Umiditate
    00:00 +8°C° 0 mm 1 m/s 693 mmHg 96%
    01:00 +8°C° 0 mm 1 m/s 693 mmHg 96%
    02:00 +8°C° 0 mm 1 m/s 693 mmHg 96%
    03:00 +8°C° 0 mm 1 m/s 693 mmHg 96%
    04:00 +8°C° 0 mm 1 m/s 692 mmHg 96%
    05:00 +8°C° 0 mm 1 m/s 693 mmHg 95%
    06:00 +8°C° 0 mm 1 m/s 693 mmHg 94%
    07:00 +9°C° 0 mm 1 m/s 693 mmHg 93%
    08:00 +11°C° 0 mm 1 m/s 693 mmHg 86%
    09:00 +12°C° 0 mm 1 m/s 693 mmHg 80%
    10:00 +14°C° 0 mm 1 m/s 694 mmHg 73%
    11:00 +15°C° 0,1 mm 1 m/s 694 mmHg 72%
    12:00 +15°C° 0,1 mm 1 m/s 693 mmHg 71%
    13:00 +16°C° 0,1 mm 1 m/s 693 mmHg 70%
    14:00 +15°C° 0,1 mm 1 m/s 693 mmHg 72%
    15:00 +15°C° 0,1 mm 1 m/s 693 mmHg 75%
    16:00 +15°C° 0,1 mm 1 m/s 693 mmHg 77%
    17:00 +14°C° 0 mm 1 m/s 693 mmHg 82%
    18:00 +12°C° 0 mm 1 m/s 693 mmHg 88%
    19:00 +11°C° 0 mm 1 m/s 693 mmHg 93%
    20:00 +11°C° 0,1 mm 1 m/s 693 mmHg 94%
    21:00 +10°C° 0,1 mm 1 m/s 693 mmHg 94%
    22:00 +10°C° 0,1 mm 1 m/s 693 mmHg 95%
    23:00 +10°C° 0,1 mm 1 m/s 693 mmHg 95%

    27 Septembrie, Miercuri

    Timp Temperatura Precipitaţii Vânt Presiune Umiditate
    00:00 +10°C° 0,1 mm 1 m/s 693 mmHg 95%
    01:00 +9°C° 0,1 mm 1 m/s 693 mmHg 95%
    02:00 +9°C° 0,1 mm 1 m/s 693 mmHg 95%
    03:00 +9°C° 0,1 mm 1 m/s 693 mmHg 95%
    04:00 +9°C° 0,1 mm 1 m/s 693 mmHg 94%
    05:00 +9°C° 0 mm 1 m/s 694 mmHg 94%
    06:00 +10°C° 0 mm 1 m/s 694 mmHg 93%
    07:00 +10°C° 0 mm 1 m/s 694 mmHg 92%
    08:00 +12°C° 0 mm 1 m/s 695 mmHg 85%
    09:00 +14°C° 0 mm 1 m/s 695 mmHg 77%
    10:00 +16°C° 0 mm 1 m/s 696 mmHg 69%
    11:00 +18°C° 0,3 mm 1 m/s 695 mmHg 68%
    12:00 +19°C° 0,3 mm 1 m/s 695 mmHg 66%
    13:00 +19°C° 0,3 mm 1 m/s 695 mmHg 64%
    14:00 +19°C° 0,3 mm 1 m/s 695 mmHg 65%
    15:00 +19°C° 0,3 mm 1 m/s 695 mmHg 67%
    16:00 +18°C° 0,3 mm 1 m/s 695 mmHg 68%
    17:00 +15°C° 0,1 mm 1 m/s 695 mmHg 76%
    18:00 +13°C° 0,1 mm 1 m/s 695 mmHg 83%
    19:00 +11°C° 0,1 mm 1 m/s 695 mmHg 90%
    20:00 +11°C° 0 mm 1 m/s 695 mmHg 91%
    21:00 +10°C° 0 mm 1 m/s 695 mmHg 92%
    22:00 +10°C° 0 mm 1 m/s 695 mmHg 93%
    23:00 +10°C° 0 mm 1 m/s 695 mmHg 93%

    28 Septembrie, Joi

    Timp Temperatura Precipitaţii Vânt Presiune Umiditate
    00:00 +10°C° 0 mm 1 m/s 695 mmHg 93%
    01:00 +9°C° 0 mm 1 m/s 695 mmHg 93%
    02:00 +9°C° 0 mm 1 m/s 695 mmHg 93%
    03:00 +9°C° 0 mm 1 m/s 695 mmHg 93%
    04:00 +9°C° 0 mm 1 m/s 695 mmHg 93%
    05:00 +9°C° 0 mm 1 m/s 696 mmHg 92%
    06:00 +9°C° 0 mm 1 m/s 696 mmHg 91%
    07:00 +10°C° 0 mm 1 m/s 696 mmHg 89%
    08:00 +12°C° 0 mm 1 m/s 697 mmHg 80%
    09:00 +15°C° 0 mm 1 m/s 697 mmHg 71%
    10:00 +19°C° 0 mm 1 m/s 698 mmHg 62%
    11:00 +19°C° 0,1 mm 1 m/s 698 mmHg 59%
    12:00 +20°C° 0,1 mm 1 m/s 698 mmHg 56%
    13:00 +21°C° 0,1 mm 1 m/s 698 mmHg 53%
    14:00 +20°C° 0,1 mm 1 m/s 698 mmHg 57%
    15:00 +20°C° 0,1 mm 1 m/s 697 mmHg 60%
    16:00 +19°C° 0,1 mm 1 m/s 697 mmHg 64%
    17:00 +16°C° 0,1 mm 1 m/s 697 mmHg 72%
    18:00 +14°C° 0,1 mm 1 m/s 697 mmHg 80%
    19:00 +11°C° 0,1 mm 1 m/s 697 mmHg 88%
    20:00 +11°C° 0 mm 1 m/s 697 mmHg 89%
    21:00 +11°C° 0 mm 1 m/s 697 mmHg 90%
    22:00 +10°C° 0 mm 1 m/s 697 mmHg 91%
    23:00 +10°C° 0 mm 1 m/s 697 mmHg 92%
    Arată mai mult